Location: *
(49.7115°N, 15.0136°E)
Time: 03:52:58
(UTC+00:00)

CZ-2C R/B - Pass Details

Date: 27 February 2020
Orbit: 703 x 909 km, 98.1° (Epoch: 29 March)

Event Time Altitude Azimuth Distance (km) Brightness Sun altitude
Exits shadow 19:18:39 - 187° (S) 3,002 5.9 -26.4°
Reaches altitude 10° 19:19:49 10° 191° (S) 2,579 5.6 -26.6°
Maximum altitude 19:25:18 44° 263° (W) 1,216 4.3 -27.4°
Drops below altitude 10° 19:30:41 10° 335° (NNW) 2,517 6.2 -28.2°
Sets 19:33:09 0° 342° (NNW) 3,430 6.9 -28.6°
